Location: Fort Wayne
(41.1310°N, 85.1290°W)
Time: 20:16:34
(UTC-04:00)

Cosmos 1000 Rocket - Visible Passes

Search period start: 22 September 2014 00:00
Search period end: 02 October 2014 00:00
Orbit: 953 x 994 km, 82.9° (Epoch: 21 September)

Date Brightness Start Highest point End Pass type
(mag) Time Alt. Az. Time Alt. Az. Time Alt. Az.
22 Sep 5.4 05:24:22 10° N 05:30:17 48° ENE 05:36:11 10° SSE visible
22 Sep 7.8 20:44:10 10° W 20:45:49 11° WNW 20:47:28 10° NW visible
23 Sep 7.3 04:06:21 10° NE 04:08:51 13° ENE 04:11:20 10° E visible
23 Sep 4.5 05:48:57 10° N 05:55:07 86° E 06:01:16 10° S visible
24 Sep 6.6 04:29:23 10° NNE 04:34:07 23° ENE 04:38:50 10° ESE visible
24 Sep 4.5 06:13:52 10° NNW 06:19:47 53° W 06:25:43 10° SSW visible
25 Sep 5.7 04:53:27 10° N 04:59:12 40° ENE 05:04:55 10° SE visible
25 Sep 5.2 06:39:08 10° NNW 06:44:18 29° W 06:49:29 10° SW visible
25 Sep 7.5 20:11:37 10° W 20:14:35 14° WNW 20:17:34 10° NW visible
26 Sep 4.6 05:17:57 10° N 05:24:05 72° E 05:30:13 10° SSE visible
27 Sep 6.8 03:58:44 10° NNE 04:02:57 19° ENE 04:07:10 10° ESE visible
27 Sep 4.4 05:42:45 10° NNW 05:48:48 65° W 05:54:52 10° S visible
28 Sep 5.9 04:22:35 10° N 04:28:05 33° ENE 04:33:34 10° SE visible
28 Sep 5.0 06:07:53 10° NNW 06:13:22 36° W 06:18:53 10° SSW visible
29 Sep 4.9 04:46:58 10° N 04:53:02 59° E 04:59:06 10° SSE visible
29 Sep 5.6 06:33:34 10° NW 06:37:47 20° W 06:42:01 10° SW visible
30 Sep 6.9 03:28:12 10° NNE 03:31:46 16° ENE 03:35:18 10° ESE visible
30 Sep 4.3 05:11:40 10° N 05:17:48 78° W 05:20:26 37° S visible
01 Oct 6.2 03:51:46 10° NNE 03:56:57 28° ENE 03:58:08 26° E visible
01 Oct 4.7 05:36:41 10° NNW 05:42:26 43° W 05:42:37 43° W visible
